Location: Sternwarte_Laufen
(47.9344°N, 12.9346°E)
Time: 07:56:14
(UTC+01:00)

BlueWalker 3 - Pass Details

Date: 05 February 2023
Orbit: 497 x 515 km, 53.2° (Epoch: 23 March)

Event Time Altitude Azimuth Distance (km) Brightness Sun altitude
Rises 18:55:06 0° 292° (WNW) 2,604 6.7 -17.1°
Reaches altitude 10° 18:57:22 10° 299° (WNW) 1,722 5.5 -17.5°
Maximum altitude 19:01:06 43° 12° (NNE) 723 2.5 -18.1°
Enters shadow 19:01:50 38° 44° (NE) 786 2.5 -18.3°
